Meriden, CT

11:17 AM EST on February 24, 2018 (GMT -0500)
Meriden Markham Municipal

Weather History for KMMK - January, 2013

Change the Weather History Date:

Sunday, January 6, 2013

  Actual Average (KOXC) Record (KOXC)
Temperature  
Mean Temperature 34 °F -  
Max Temperature 43 °F 33 °F 68 °F (2007)
Min Temperature 25 °F 20 °F 0 °F (2018)
Degree Days  
Heating Degree Days 31    
Moisture  
Dew Point 26 °F    
Average Humidity 77    
Maximum Humidity 92    
Minimum Humidity 51    
Precipitation  
Precipitation 0.00 in - - ()
Sea Level Pressure  
Sea Level Pressure 30.06 in    
Wind  
Wind Speed 2 mph (SSW)    
Max Wind Speed 8 mph    
Max Gust Speed -    
Visibility 8 miles    
Events      
Averages and records for this station are not official NWS values.
T = Trace of Precipitation, MM = Missing Value Source: NWS Daily Summary

Daily Weather History Graph

Daily Weather History Graph

Search for Another Location

Airport or City:

Trip Planner

Search our weather history database for the weather conditions in past years. The results will help you decide how hot, cold, wet, or windy it might be!

Date:

Astronomy

Jan. 06, 2013 Rise Set
Actual Time 7:17 AM EST 4:37 PM EST
Civil Twilight 6:46 AM EST 5:08 PM EST
Nautical Twilight 6:12 AM EST 5:42 PM EST
Astronomical Twilight 5:38 AM EST 6:16 PM EST
Moon 1:27 AM EST (1/6) 12:03 PM EST (1/6)
Length of Visible Light 10h 21m
Length of Day
9h 19m
Waning Crescent, 33% of the Moon is Illuminated
Jan 6
Waning Crescent
Jan 11
New
Jan 18
First Quarter
Jan 26
Full
Feb 3
Last Quarter

Hourly Weather History & Observations

Time (EST) Temp. Windchill Dew Point Humidity Pressure Visibility Wind Dir Wind Speed Gust Speed Precip Events Conditions
12:53 AM 25.0 °F - 21.0 °F 85% 30.22 in 8.0 mi Calm Calm - N/A   Clear
1:53 AM 26.1 °F - 21.9 °F 84% 30.22 in 7.0 mi Calm Calm - N/A   Overcast
2:53 AM 27.0 °F 23.0 °F 21.9 °F 81% 30.18 in 8.0 mi SE 3.5 mph - N/A   Overcast
3:53 AM 28.9 °F - 21.9 °F 75% 30.17 in 10.0 mi Calm Calm - N/A   Overcast
4:53 AM 28.0 °F - 24.1 °F 85% 30.14 in 8.0 mi Calm Calm - 0.00 in   Overcast
5:53 AM 28.0 °F - 24.1 °F 85% 30.12 in 8.0 mi Calm Calm - N/A   Overcast
6:53 AM 27.0 °F - 24.1 °F 89% 30.11 in 8.0 mi Calm Calm - N/A   Mostly Cloudy
7:53 AM 28.0 °F - 25.0 °F 88% 30.11 in 6.0 mi Calm Calm - N/A   Overcast
8:22 AM 30.2 °F 25.4 °F 24.8 °F 80% 30.09 in 7.0 mi SSE 4.6 mph - N/A   Overcast
8:53 AM 33.1 °F 26.9 °F 26.1 °F 75% 30.09 in 7.0 mi South 6.9 mph - N/A   Overcast
9:31 AM 33.8 °F 27.7 °F 28.4 °F 81% 30.09 in 6.0 mi South 6.9 mph - N/A   Haze
9:53 AM 35.1 °F 28.6 °F 28.9 °F 78% 30.09 in 6.0 mi SSW 8.1 mph - N/A   Haze
10:19 AM 35.6 °F 29.2 °F 28.4 °F 75% 30.08 in 7.0 mi SSW 8.1 mph - N/A   Mostly Cloudy
10:53 AM 37.9 °F 33.5 °F 30.0 °F 73% 30.06 in 8.0 mi South 5.8 mph - N/A   Overcast
11:53 AM 39.9 °F - 28.0 °F 63% 30.01 in 10.0 mi Calm Calm - N/A   Clear
12:53 PM 42.1 °F 39.2 °F 27.0 °F 55% 29.99 in 10.0 mi Variable 4.6 mph - N/A   Clear
1:53 PM 43.0 °F 38.8 °F 27.0 °F 53% 29.97 in 10.0 mi West 6.9 mph - N/A   Clear
2:53 PM 43.0 °F 40.3 °F 27.0 °F 53% 29.96 in 10.0 mi Variable 4.6 mph - N/A   Clear
3:53 PM 43.0 °F 41.3 °F 26.1 °F 51% 29.97 in 10.0 mi SW 3.5 mph - N/A   Clear
4:53 PM 36.0 °F 32.1 °F 27.0 °F 70% 29.97 in 10.0 mi South 4.6 mph - N/A   Clear
5:53 PM 30.9 °F - 26.1 °F 82% 29.98 in 9.0 mi Calm Calm - N/A   Clear
6:53 PM 30.9 °F - 26.1 °F 82% 29.99 in 7.0 mi Calm Calm - N/A   Clear
7:53 PM 28.0 °F - 25.0 °F 88% 29.99 in 4.0 mi Calm Calm - N/A   Mostly Cloudy
8:53 PM 27.0 °F - 25.0 °F 92% 29.99 in 4.0 mi Calm Calm - N/A   Mostly Cloudy
9:53 PM 30.9 °F 25.2 °F 26.1 °F 82% 30.00 in 7.0 mi NW 5.8 mph - N/A   Clear
10:53 PM 30.0 °F 26.5 °F 25.0 °F 82% 30.01 in 10.0 mi NNE 3.5 mph - N/A   Clear
11:53 PM 25.0 °F - 23.0 °F 92% 30.01 in 6.0 mi Calm Calm - N/A   Clear